Terminal Aerodrome Forecast
Issued by NWS Bismarck, ND

Home | Current Version | Previous Version | Text Only | Print | Product List | Glossary Off
Versions: 1 2 3 4 5 6 7 8 9 10 11 12 13 14 15 16 17

863
FTUS43 KBIS 241732
TAFBIS
TAF
KBIS 241732Z 2418/2518 17018G25KT P6SM BKN070
     FM242200 20014G20KT P6SM BKN100
     FM250500 24007KT P6SM BKN050
     FM250700 28015KT 6SM -RA OVC015
     FM250900 30019G28KT 6SM -RA OVC008
     FM251200 31020G28KT P6SM OVC015
     FM251400 31020G28KT P6SM SCT060=

USA.gov is the U.S. government's official web portal to all federal, state and local government web resources and services.